DW0000 Weather Reports


Display with metric or nautical units.
time (UTC)temp
F
wind
direction
speed
MPH
gust
MPH
rain 1hr
in
rain 24hr
in
rain mn
in
humidity
%
barometer
mb
20260906031006 60 325 29.0 41.0 0.00 0.00 0.00 81 1011.9
20260906030005 61 326 22.0 36.0 0.00 0.00 0.00 81 1012.3
20260906025507 61 323 24.0 38.0 0.00 0.00 0.00 82 1012.2
20260906024505 61 318 27.0 36.0 0.00 0.00 0.00 80 1012.4
20260906023005 62 319 25.0 35.0 0.00 0.00 0.00 79 1012.4
20260906022505 62 321 25.0 33.0 0.00 0.00 0.00 80 1012.3
20260906022007 62 327 21.0 36.0 0.00 0.00 0.00 79 1012.4
20260906021505 62 323 20.0 28.0 0.00 0.00 0.00 82 1012.5
20260906015505 61 318 27.0 36.0 0.00 0.00 0.00 78 1012.7
20260906015005 61 320 23.0 31.0 0.00 0.00 0.00 78 1012.8
20260906014007 61 319 26.0 35.0 0.00 0.00 0.00 76 1012.7
20260906012506 62 320 24.0 36.0 0.00 0.00 0.00 75 1013.0
20260906012005 62 322 22.0 30.0 0.00 0.00 0.00 75 1013.2
20260906011505 62 324 22.0 32.0 0.00 0.00 0.00 76 1013.2
20260906011005 62 310 20.0 31.0 0.00 0.00 0.00 75 1013.1
20260906010506 62 319 26.0 37.0 0.00 0.00 0.00 74 1013.4
20260906010005 62 317 24.0 33.0 0.00 0.00 0.00 74 1013.2
20260906005505 62 317 25.0 31.0 0.00 0.00 0.00 74 1013.4
20260906004507 62 320 25.0 33.0 0.00 0.00 0.00 77 1013.8
20260906004005 62 331 26.0 35.0 0.00 0.00 0.00 76 1013.9
20260906003006 62 316 28.0 37.0 0.00 0.00 0.00 75 1014.0
20260906001005 61 320 24.0 32.0 0.00 0.00 0.00 76 1014.4
20260906000006 61 315 24.0 35.0 0.00 0.00 0.00 76 1014.7
20260905235005 61 324 22.0 31.0 0.00 0.00 0.00 76 1014.8
20260905234504 61 322 15.0 24.0 0.00 0.00 0.00 77 1014.9
20260905233505 61 322 24.0 32.0 0.00 0.00 0.00 76 1015.0
20260905233007 61 321 21.0 31.0 0.00 0.00 0.00 75 1015.0
20260905232507 61 314 20.0 28.0 0.00 0.00 0.00 75 1015.2
20260905232005 61 327 21.0 26.0 0.00 0.00 0.00 76 1015.2
20260905231505 61 313 18.0 30.0 0.00 0.00 0.00 76 1015.3
20260905231005 61 321 25.0 32.0 0.00 0.00 0.00 76 1015.2
20260905230506 62 319 24.0 32.0 0.00 0.00 0.00 77 1015.3
20260905224506 60 331 18.0 28.0 0.00 0.00 0.00 79 1015.5
20260905223505 60 325 25.0 31.0 0.00 0.00 0.00 79 1015.6
20260905223007 60 316 21.0 28.0 0.00 0.00 0.00 81 1015.7
20260905222505 59 317 20.0 26.0 0.00 0.00 0.00 80 1015.8
20260905222006 59 320 20.0 26.0 0.00 0.00 0.00 81 1016.0
20260905221506 59 319 18.0 24.0 0.00 0.00 0.00 81 1016.0
20260905221005 59 329 17.0 24.0 0.00 0.00 0.00 81 1016.0
20260905215005 60 325 14.0 22.0 0.00 0.00 0.00 81 1016.2
20260905214507 60 326 16.0 25.0 0.00 0.00 0.00 81 1016.4
20260905213006 60 323 17.0 23.0 0.00 0.00 0.00 82 1016.6
20260905212505 59 313 16.0 28.0 0.00 0.00 0.00 81 1016.7
20260905211506 59 327 17.0 24.0 0.00 0.00 0.00 82 1016.6
20260905205504 59 320 14.0 22.0 0.00 0.00 0.00 84 1016.7
20260905204505 58 322 13.0 20.0 0.00 0.00 0.00 85 1016.5
20260905204006 58 328 12.0 20.0 0.00 0.00 0.00 86 1016.9
20260905203505 57 314 16.0 22.0 0.00 0.00 0.00 86 1016.5
20260905202506 57 315 16.0 21.0 0.00 0.00 0.00 87 1016.6
20260905195506 56 319 18.0 22.0 0.00 0.00 0.00 89 1016.4
20260905195005 56 324 16.0 20.0 0.00 0.00 0.00 89 1016.5
20260905193504 55 319 16.0 21.0 0.00 0.00 0.00 90 1016.3
20260905193005 55 317 13.0 16.0 0.00 0.00 0.00 90 1016.4
20260905191505 55 318 10.0 13.0 0.00 0.00 0.00 90 1016.6
20260905191005 55 324 9.0 13.0 0.00 0.00 0.00 90 1016.5
20260905185505 55 335 9.0 13.0 0.00 0.00 0.00 91 1016.5
20260905184504 55 328 9.0 13.0 0.00 0.00 0.00 91 1016.3
20260905183005 54 344 7.0 12.0 0.00 0.00 0.00 91 1016.1
20260905182504 54 338 6.0 9.0 0.00 0.00 0.00 90 1016.1
20260905182005 54 336 6.0 10.0 0.00 0.00 0.00 90 1016.0
20260905181005 54 314 8.0 13.0 0.00 0.00 0.00 90 1015.9
20260905175505 54 334 7.0 12.0 0.00 0.00 0.00 90 1016.0
20260905174504 54 336 7.0 13.0 0.00 0.00 0.00 90 1016.1
20260905173504 53 319 10.0 14.0 0.00 0.00 0.00 90 1016.2
20260905172505 53 320 10.0 15.0 0.00 0.00 0.00 90 1016.1
20260905171504 53 312 12.0 15.0 0.00 0.00 0.00 90 1016.2
20260905171006 53 317 13.0 16.0 0.00 0.00 0.00 90 1015.9
20260905170504 53 316 12.0 15.0 0.00 0.00 0.00 90 1016.0
20260905165506 53 318 12.0 15.0 0.00 0.00 0.00 90 1015.9
20260905164006 53 314 10.0 15.0 0.00 0.00 0.00 90 1015.7
20260905163007 53 314 9.0 13.0 0.00 0.00 0.00 89 1015.6
20260905162506 53 312 9.0 13.0 0.00 0.00 0.00 89 1015.7
20260905161508 53 315 10.0 15.0 0.00 0.00 0.00 89 1015.6
20260905155007 53 312 5.0 8.0 0.00 0.00 0.00 89 1015.8
20260905154506 53 317 7.0 10.0 0.00 0.00 0.00 89 1015.7
20260905154008 53 320 6.0 10.0 0.00 0.00 0.00 89 1015.7
20260905153506 53 314 8.0 10.0 0.00 0.00 0.00 89 1015.7
20260905153007 53 317 10.0 13.0 0.00 0.00 0.00 89 1015.8
20260905152507 53 317 8.0 13.0 0.00 0.00 0.00 89 1015.8
20260905152006 53 314 11.0 15.0 0.00 0.00 0.00 89 1015.8
20260905151506 54 320 10.0 14.0 0.00 0.00 0.00 89 1015.9
20260905150506 54 315 10.0 16.0 0.00 0.00 0.00 90 1016.1
20260905150006 54 314 10.0 15.0 0.00 0.00 0.00 90 1016.0
20260905145507 54 318 12.0 15.0 0.00 0.00 0.00 90 1016.1
20260905144506 54 318 12.0 15.0 0.00 0.00 0.00 90 1016.2
20260905142508 53 308 12.0 15.0 0.00 0.00 0.00 90 1016.4
20260905134506 53 306 6.0 13.0 0.00 0.00 0.00 90 1017.2
20260905133506 53 296 6.0 16.0 0.00 0.00 0.00 90 1017.0
20260905133007 53 294 9.0 17.0 0.00 0.00 0.00 90 1017.1
20260905132506 53 283 10.0 20.0 0.00 0.00 0.00 90 1017.1
20260905132006 53 298 7.0 18.0 0.00 0.00 0.00 90 1017.1
20260905131006 53 298 7.0 13.0 0.00 0.00 0.00 89 1017.1
20260905130506 53 297 6.0 12.0 0.00 0.00 0.00 88 1017.3
20260905125006 53 288 6.0 14.0 0.00 0.00 0.00 88 1017.5
20260905123507 54 305 6.0 13.0 0.00 0.00 0.00 87 1017.3
20260905122007 54 268 5.0 12.0 0.00 0.00 0.00 87 1017.6
20260905121006 54 291 8.0 15.0 0.00 0.00 0.00 86 1017.6
20260905120506 54 294 7.0 14.0 0.00 0.00 0.00 86 1017.7
20260905120007 54 273 5.0 13.0 0.00 0.00 0.00 85 1017.8
20260905115006 54 270 7.0 15.0 0.00 0.00 0.00 85 1017.8
20260905114506 54 255 10.0 18.0 0.00 0.00 0.00 85 1017.9
20260905113006 54 273 7.0 13.0 0.00 0.00 0.00 85 1018.2
20260905112506 54 260 9.0 15.0 0.00 0.00 0.00 84 1017.9
20260905112007 54 253 10.0 16.0 0.00 0.00 0.00 84 1018.0
20260905111505 55 263 7.0 18.0 0.00 0.00 0.00 84 1018.1
20260905110506 54 258 12.0 18.0 0.00 0.00 0.00 85 1018.1
20260905110007 54 254 12.0 21.0 0.00 0.00 0.00 85 1018.2
20260905105006 53 250 12.0 20.0 0.00 0.00 0.00 86 1018.2
20260905104507 53 260 12.0 18.0 0.00 0.00 0.00 86 1018.3
20260905103506 53 286 6.0 13.0 0.00 0.00 0.00 86 1018.4
20260905103006 53 262 7.0 12.0 0.00 0.00 0.00 85 1018.5
20260905102507 53 259 7.0 14.0 0.00 0.00 0.00 85 1018.3
20260905102005 52 268 6.0 13.0 0.00 0.00 0.00 85 1018.1
20260905101506 52 262 7.0 13.0 0.00 0.00 0.00 84 1018.1
20260905101007 52 280 5.0 10.0 0.00 0.00 0.00 84 1018.1
20260905100506 53 299 6.0 13.0 0.00 0.00 0.00 84 1018.0
20260905095006 53 297 7.0 14.0 0.00 0.00 0.00 82 1018.1
20260905093507 53 297 5.0 14.0 0.00 0.00 0.00 81 1018.1
20260905093006 54 272 6.0 13.0 0.00 0.00 0.00 81 1018.1
20260905092506 54 259 9.0 15.0 0.00 0.00 0.00 80 1017.9
20260905091505 54 252 12.0 20.0 0.00 0.00 0.00 80 1018.1
20260905090006 54 253 14.0 21.0 0.00 0.00 0.00 80 1018.1
20260905085007 54 250 12.0 22.0 0.00 0.00 0.00 80 1018.3
20260905084007 54 274 16.0 26.0 0.00 0.00 0.00 81 1018.1
20260905080008 53 295 10.0 18.0 0.00 0.00 0.00 85 1017.6
20260905074006 52 298 10.0 21.0 0.00 0.00 0.00 84 1017.4
20260905073506 52 302 7.0 13.0 0.00 0.00 0.00 83 1017.3
20260905071507 52 268 5.0 13.0 0.00 0.00 0.00 81 1017.4
20260905070006 52 278 4.0 13.0 0.00 0.00 0.00 81 1017.2
20260905065507 52 297 7.0 15.0 0.00 0.00 0.00 81 1017.1
20260905065006 53 288 7.0 14.0 0.00 0.00 0.00 81 1017.0
20260905064005 53 301 6.0 13.0 0.00 0.00 0.00 79 1017.0
20260905063507 53 312 7.0 14.0 0.00 0.00 0.00 79 1017.1
20260905063005 53 312 9.0 13.0 0.00 0.00 0.00 79 1017.0
20260905060507 55 262 8.0 13.0 0.00 0.00 0.00 78 1017.5
20260905060006 55 268 7.0 15.0 0.00 0.00 0.00 78 1017.4
20260905054006 56 278 9.0 18.0 0.00 0.00 0.00 76 1017.6
20260905053507 57 282 6.0 15.0 0.00 0.00 0.00 75 1017.4
20260905051005 58 274 7.0 17.0 0.00 0.00 0.00 74 1017.5
20260905050507 58 257 9.0 16.0 0.00 0.00 0.00 74 1017.4
20260905045506 58 253 13.0 17.0 0.00 0.00 0.00 74 1017.2
20260905045007 59 258 12.0 18.0 0.00 0.00 0.00 73 1017.2
20260905044505 59 265 9.0 18.0 0.00 0.01 0.00 72 1017.4
20260905044006 59 275 9.0 20.0 0.00 0.02 0.00 72 1017.5
20260905042505 60 274 10.0 21.0 0.00 0.02 0.00 71 1017.7
20260905041006 60 259 9.0 18.0 0.00 0.02 0.00 71 1017.6
20260905035505 61 268 10.0 22.0 0.00 0.02 0.00 69 1017.5
20260905035007 61 282 10.0 18.0 0.00 0.02 0.00 68 1017.6
20260905034006 62 262 10.0 20.0 0.00 0.03 0.00 68 1017.9
20260905033007 62 247 11.0 20.0 0.00 0.03 0.00 69 1017.9
20260905032506 62 272 11.0 18.0 0.00 0.03 0.00 68 1017.8
20260905032006 62 260 12.0 21.0 0.00 0.03 0.00 66 1017.8